Year,Month,Day,Hour,Minute,Value (Times are PST for temperature in C)
2005,07,20,00,00,14.00
2005,07,20,00,01,14.00
2005,07,20,00,02,14.00
2005,07,20,00,03,13.90
2005,07,20,00,04,13.90
2005,07,20,00,05,13.90
2005,07,20,00,06,13.90
2005,07,20,00,07,13.90
2005,07,20,00,08,13.90
2005,07,20,00,09,13.80
2005,07,20,00,10,13.80
2005,07,20,00,11,13.80
2005,07,20,00,12,13.80
2005,07,20,00,13,13.70
2005,07,20,00,14,13.70
2005,07,20,00,15,13.70
2005,07,20,00,16,13.70
2005,07,20,00,17,13.70
2005,07,20,00,18,13.70
2005,07,20,00,19,13.70
2005,07,20,00,20,13.60
2005,07,20,00,21,13.60
2005,07,20,00,22,13.60
2005,07,20,00,23,13.60
2005,07,20,00,24,13.60
2005,07,20,00,25,13.60
2005,07,20,00,26,13.50
2005,07,20,00,27,13.50
2005,07,20,00,28,13.50
2005,07,20,00,29,13.50
2005,07,20,00,30,13.50
2005,07,20,00,31,13.40
2005,07,20,00,32,13.40
2005,07,20,00,33,13.40
2005,07,20,00,34,13.40
2005,07,20,00,35,13.40
2005,07,20,00,36,13.40
2005,07,20,00,37,13.40
2005,07,20,00,38,13.40
2005,07,20,00,39,13.40
2005,07,20,00,40,13.40
2005,07,20,00,41,13.40
2005,07,20,00,42,13.40
2005,07,20,00,43,13.30
2005,07,20,00,44,13.30
2005,07,20,00,45,13.30
2005,07,20,00,46,13.30
2005,07,20,00,47,13.30
2005,07,20,00,48,13.30
2005,07,20,00,49,13.30
2005,07,20,00,50,13.30
2005,07,20,00,51,13.30
2005,07,20,00,52,13.30
2005,07,20,00,53,13.30
2005,07,20,00,54,13.30
2005,07,20,00,55,13.30
2005,07,20,00,56,13.30
2005,07,20,00,57,13.30
2005,07,20,00,58,13.30
2005,07,20,00,59,13.30
2005,07,20,01,00,13.30
2005,07,20,01,01,13.30
2005,07,20,01,02,13.30
2005,07,20,01,03,13.20
2005,07,20,01,04,13.20
2005,07,20,01,05,13.20
2005,07,20,01,06,13.20
2005,07,20,01,07,13.20
2005,07,20,01,08,13.20
2005,07,20,01,09,13.20
2005,07,20,01,10,13.20
2005,07,20,01,11,13.10
2005,07,20,01,12,13.10
2005,07,20,01,13,13.10
2005,07,20,01,14,13.10
2005,07,20,01,15,13.10
2005,07,20,01,16,13.20
2005,07,20,01,17,13.20
2005,07,20,01,18,13.20
2005,07,20,01,19,13.20
2005,07,20,01,20,13.20
2005,07,20,01,21,13.20
2005,07,20,01,22,13.20
2005,07,20,01,23,13.20
2005,07,20,01,24,13.20
2005,07,20,01,25,13.20
2005,07,20,01,26,13.30
2005,07,20,01,27,13.30
2005,07,20,01,28,13.30
2005,07,20,01,29,13.30
2005,07,20,01,30,13.30
2005,07,20,01,31,13.30
2005,07,20,01,32,13.30
2005,07,20,01,33,13.30
2005,07,20,01,34,13.30
2005,07,20,01,35,13.30
2005,07,20,01,36,13.30
2005,07,20,01,37,13.30
2005,07,20,01,38,13.30
2005,07,20,01,39,13.30
2005,07,20,01,40,13.30
2005,07,20,01,41,13.30
2005,07,20,01,42,13.30
2005,07,20,01,43,13.20
2005,07,20,01,44,13.20
2005,07,20,01,45,13.20
2005,07,20,01,46,13.20
2005,07,20,01,47,13.20
2005,07,20,01,48,13.20
2005,07,20,01,49,13.20
2005,07,20,01,50,13.20
2005,07,20,01,51,13.20
2005,07,20,01,52,13.20
2005,07,20,01,53,13.20
2005,07,20,01,54,13.20
2005,07,20,01,55,13.20
2005,07,20,01,56,13.20
2005,07,20,01,57,13.10
2005,07,20,01,58,13.10
2005,07,20,01,59,13.10
2005,07,20,02,00,13.10
2005,07,20,02,01,13.10
2005,07,20,02,02,13.10
2005,07,20,02,03,13.10
2005,07,20,02,04,13.10
2005,07,20,02,05,13.10
2005,07,20,02,06,13.00
2005,07,20,02,07,13.00
2005,07,20,02,08,13.00
2005,07,20,02,09,13.00
2005,07,20,02,10,13.00
2005,07,20,02,11,13.00
2005,07,20,02,12,13.00
2005,07,20,02,13,13.00
2005,07,20,02,14,12.90
2005,07,20,02,15,12.90
2005,07,20,02,16,12.90
2005,07,20,02,17,12.90
2005,07,20,02,18,12.80
2005,07,20,02,19,12.80
2005,07,20,02,20,12.80
2005,07,20,02,21,12.80
2005,07,20,02,22,12.80
2005,07,20,02,23,12.80
2005,07,20,02,24,12.80
2005,07,20,02,25,12.80
2005,07,20,02,26,12.80
2005,07,20,02,27,12.80
2005,07,20,02,28,12.80
2005,07,20,02,29,12.80
2005,07,20,02,30,12.80
2005,07,20,02,31,12.70
2005,07,20,02,32,12.70
2005,07,20,02,33,12.70
2005,07,20,02,34,12.70
2005,07,20,02,35,12.70
2005,07,20,02,36,12.70
2005,07,20,02,37,12.70
2005,07,20,02,38,12.70
2005,07,20,02,39,12.70
2005,07,20,02,40,12.60
2005,07,20,02,41,12.60
2005,07,20,02,42,12.60
2005,07,20,02,43,12.60
2005,07,20,02,44,12.60
2005,07,20,02,45,12.60
2005,07,20,02,46,12.60
2005,07,20,02,47,12.60
2005,07,20,02,48,12.60
2005,07,20,02,49,12.50
2005,07,20,02,50,12.50
2005,07,20,02,51,12.50
2005,07,20,02,52,12.50
2005,07,20,02,53,12.50
2005,07,20,02,54,12.50
2005,07,20,02,55,12.40
2005,07,20,02,56,12.40
2005,07,20,02,57,12.40
2005,07,20,02,58,12.40
2005,07,20,02,59,12.40
2005,07,20,03,00,12.40
2005,07,20,03,01,12.40
2005,07,20,03,02,12.40
2005,07,20,03,03,12.30
2005,07,20,03,04,12.30
2005,07,20,03,05,12.30
2005,07,20,03,06,12.30
2005,07,20,03,07,12.30
2005,07,20,03,08,12.30
2005,07,20,03,09,12.30
2005,07,20,03,10,12.30
2005,07,20,03,11,12.30
2005,07,20,03,12,12.30
2005,07,20,03,13,12.30
2005,07,20,03,14,12.30
2005,07,20,03,15,12.30
2005,07,20,03,16,12.30
2005,07,20,03,17,12.30
2005,07,20,03,18,12.30
2005,07,20,03,19,12.30
2005,07,20,03,20,12.30
2005,07,20,03,21,12.30
2005,07,20,03,22,12.30
2005,07,20,03,23,12.30
2005,07,20,03,24,12.30
2005,07,20,03,25,12.30
2005,07,20,03,26,12.30
2005,07,20,03,27,12.30
2005,07,20,03,28,12.30
2005,07,20,03,29,12.30
2005,07,20,03,30,12.30
2005,07,20,03,31,12.30
2005,07,20,03,32,12.30
2005,07,20,03,33,12.30
2005,07,20,03,34,12.30
2005,07,20,03,35,12.30
2005,07,20,03,36,12.30
2005,07,20,03,37,12.30
2005,07,20,03,38,12.30
2005,07,20,03,39,12.30
2005,07,20,03,40,12.30
2005,07,20,03,41,12.30
2005,07,20,03,42,12.30
2005,07,20,03,43,12.20
2005,07,20,03,44,12.20
2005,07,20,03,45,12.20
2005,07,20,03,46,12.20
2005,07,20,03,47,12.20
2005,07,20,03,48,12.20
2005,07,20,03,49,12.20
2005,07,20,03,50,12.20
2005,07,20,03,51,12.20
2005,07,20,03,52,12.20
2005,07,20,03,53,12.20
2005,07,20,03,54,12.10
2005,07,20,03,55,12.10
2005,07,20,03,56,12.10
2005,07,20,03,57,12.10
2005,07,20,03,58,12.10
2005,07,20,03,59,12.10
2005,07,20,04,00,12.10
2005,07,20,04,01,12.10
2005,07,20,04,02,12.00
2005,07,20,04,03,12.00
2005,07,20,04,04,12.00
2005,07,20,04,05,12.00
2005,07,20,04,06,11.90
2005,07,20,04,07,11.90
2005,07,20,04,08,11.90
2005,07,20,04,09,11.90
2005,07,20,04,10,11.80
2005,07,20,04,11,11.80
2005,07,20,04,12,11.80
2005,07,20,04,13,11.80
2005,07,20,04,14,11.80
2005,07,20,04,15,11.80
2005,07,20,04,16,11.80
2005,07,20,04,17,11.80
2005,07,20,04,18,11.80
2005,07,20,04,19,11.80
2005,07,20,04,20,11.80
2005,07,20,04,21,11.80
2005,07,20,04,22,11.80
2005,07,20,04,23,11.80
2005,07,20,04,24,11.80
2005,07,20,04,25,11.80
2005,07,20,04,26,11.80
2005,07,20,04,27,11.80
2005,07,20,04,28,11.80
2005,07,20,04,29,11.80
2005,07,20,04,30,11.80
2005,07,20,04,31,11.80
2005,07,20,04,32,11.70
2005,07,20,04,33,11.70
2005,07,20,04,34,11.70
2005,07,20,04,35,11.70
2005,07,20,04,36,11.70
2005,07,20,04,37,11.70
2005,07,20,04,38,11.70
2005,07,20,04,39,11.70
2005,07,20,04,40,11.70
2005,07,20,04,41,11.70
2005,07,20,04,42,11.70
2005,07,20,04,43,11.80
2005,07,20,04,44,11.80
2005,07,20,04,45,11.80
2005,07,20,04,46,11.80
2005,07,20,04,47,11.80
2005,07,20,04,48,11.80
2005,07,20,04,49,11.90
2005,07,20,04,50,11.90
2005,07,20,04,51,12.00
2005,07,20,04,52,12.00
2005,07,20,04,53,12.00
2005,07,20,04,54,12.00
2005,07,20,04,55,12.00
2005,07,20,04,56,12.00
2005,07,20,04,57,12.00
2005,07,20,04,58,12.00
2005,07,20,04,59,12.00
2005,07,20,05,00,12.00
2005,07,20,05,01,12.00
2005,07,20,05,02,12.00
2005,07,20,05,03,12.00
2005,07,20,05,04,11.90
2005,07,20,05,05,11.90
2005,07,20,05,06,11.90
2005,07,20,05,07,11.90
2005,07,20,05,08,11.90
2005,07,20,05,09,11.90
2005,07,20,05,10,11.90
2005,07,20,05,11,11.90
2005,07,20,05,12,11.90
2005,07,20,05,13,11.90
2005,07,20,05,14,11.90
2005,07,20,05,15,11.90
2005,07,20,05,16,11.90
2005,07,20,05,17,11.90
2005,07,20,05,18,11.90
2005,07,20,05,19,11.90
2005,07,20,05,20,11.90
2005,07,20,05,21,11.90
2005,07,20,05,22,12.00
2005,07,20,05,23,12.00
2005,07,20,05,24,12.00
2005,07,20,05,25,12.00
2005,07,20,05,26,12.00
2005,07,20,05,27,12.10
2005,07,20,05,28,12.10
2005,07,20,05,29,12.10
2005,07,20,05,30,12.10
2005,07,20,05,31,12.10
2005,07,20,05,32,12.10
2005,07,20,05,33,12.20
2005,07,20,05,34,12.20
2005,07,20,05,35,12.20
2005,07,20,05,36,12.20
2005,07,20,05,37,12.20
2005,07,20,05,38,12.20
2005,07,20,05,39,12.30
2005,07,20,05,40,12.30
2005,07,20,05,41,12.30
2005,07,20,05,42,12.30
2005,07,20,05,43,12.30
2005,07,20,05,44,12.30
2005,07,20,05,45,12.30
2005,07,20,05,46,12.40
2005,07,20,05,47,12.40
2005,07,20,05,48,12.40
2005,07,20,05,49,12.40
2005,07,20,05,50,12.40
2005,07,20,05,51,12.40
2005,07,20,05,52,12.40
2005,07,20,05,53,12.40
2005,07,20,05,54,12.50
2005,07,20,05,55,12.50
2005,07,20,05,56,12.50
2005,07,20,05,57,12.50
2005,07,20,05,58,12.60
2005,07,20,05,59,12.60
2005,07,20,06,00,12.60
2005,07,20,06,01,12.60
2005,07,20,06,02,12.70
2005,07,20,06,03,12.70
2005,07,20,06,04,12.70
2005,07,20,06,05,12.70
2005,07,20,06,06,12.70
2005,07,20,06,07,12.80
2005,07,20,06,08,12.80
2005,07,20,06,09,12.80
2005,07,20,06,10,12.80
2005,07,20,06,11,12.80
2005,07,20,06,12,12.80
2005,07,20,06,13,12.80
2005,07,20,06,14,12.80
2005,07,20,06,15,12.80
2005,07,20,06,16,12.80
2005,07,20,06,17,12.80
2005,07,20,06,18,12.90
2005,07,20,06,19,12.90
2005,07,20,06,20,12.90
2005,07,20,06,21,12.90
2005,07,20,06,22,13.00
2005,07,20,06,23,13.00
2005,07,20,06,24,13.00
2005,07,20,06,25,13.00
2005,07,20,06,26,13.10
2005,07,20,06,27,13.10
2005,07,20,06,28,13.10
2005,07,20,06,29,13.10
2005,07,20,06,30,13.20
2005,07,20,06,31,13.20
2005,07,20,06,32,13.20
2005,07,20,06,33,13.30
2005,07,20,06,34,13.30
2005,07,20,06,35,13.30
2005,07,20,06,36,13.30
2005,07,20,06,37,13.30
2005,07,20,06,38,13.40
2005,07,20,06,39,13.40
2005,07,20,06,40,13.40
2005,07,20,06,41,13.40
2005,07,20,06,42,13.50
2005,07,20,06,43,13.50
2005,07,20,06,44,13.50
2005,07,20,06,45,13.50
2005,07,20,06,46,13.60
2005,07,20,06,47,13.60
2005,07,20,06,48,13.60
2005,07,20,06,49,13.70
2005,07,20,06,50,13.70
2005,07,20,06,51,13.70
2005,07,20,06,52,13.80
2005,07,20,06,53,13.80
2005,07,20,06,54,13.90
2005,07,20,06,55,13.90
2005,07,20,06,56,13.90
2005,07,20,06,57,13.90
2005,07,20,06,58,13.90
2005,07,20,06,59,13.90
2005,07,20,07,00,13.90
2005,07,20,07,01,13.90
2005,07,20,07,02,14.00
2005,07,20,07,03,14.00
2005,07,20,07,04,14.10
2005,07,20,07,05,14.10
2005,07,20,07,06,14.20
2005,07,20,07,07,14.20
2005,07,20,07,08,14.20
2005,07,20,07,09,14.20
2005,07,20,07,10,14.30
2005,07,20,07,11,14.30
2005,07,20,07,12,14.40
2005,07,20,07,13,14.50
2005,07,20,07,14,14.50
2005,07,20,07,15,14.50
2005,07,20,07,16,14.60
2005,07,20,07,17,14.60
2005,07,20,07,18,14.60
2005,07,20,07,19,14.70
2005,07,20,07,20,14.70
2005,07,20,07,21,14.80
2005,07,20,07,22,14.80
2005,07,20,07,23,14.80
2005,07,20,07,24,14.80
2005,07,20,07,25,14.80
2005,07,20,07,26,14.80
2005,07,20,07,27,14.80
2005,07,20,07,28,14.80
2005,07,20,07,29,14.80
2005,07,20,07,30,14.80
2005,07,20,07,31,14.80
2005,07,20,07,32,14.90
2005,07,20,07,33,14.90
2005,07,20,07,34,15.00
2005,07,20,07,35,15.00
2005,07,20,07,36,15.10
2005,07,20,07,37,15.10
2005,07,20,07,38,15.10
2005,07,20,07,39,15.20
2005,07,20,07,40,15.20
2005,07,20,07,41,15.10
2005,07,20,07,42,15.10
2005,07,20,07,43,15.20
2005,07,20,07,44,15.30
2005,07,20,07,45,15.30
2005,07,20,07,46,15.40
2005,07,20,07,47,15.50
2005,07,20,07,48,15.50
2005,07,20,07,49,15.60
2005,07,20,07,50,15.70
2005,07,20,07,51,15.80
2005,07,20,07,52,15.80
2005,07,20,07,53,16.00
2005,07,20,07,54,16.10
2005,07,20,07,55,16.20
2005,07,20,07,56,16.30
2005,07,20,07,57,16.40
2005,07,20,07,58,16.40
2005,07,20,07,59,16.50
2005,07,20,08,00,16.60
2005,07,20,08,01,16.70
2005,07,20,08,02,16.70
2005,07,20,08,03,16.70
2005,07,20,08,04,16.70
2005,07,20,08,05,16.70
2005,07,20,08,06,16.70
2005,07,20,08,07,16.80
2005,07,20,08,08,16.80
2005,07,20,08,09,16.80
2005,07,20,08,10,16.80
2005,07,20,08,11,16.90
2005,07,20,08,12,16.90
2005,07,20,08,13,16.90
2005,07,20,08,14,16.90
2005,07,20,08,15,17.00
2005,07,20,08,16,17.00
2005,07,20,08,17,17.10
2005,07,20,08,18,17.10
2005,07,20,08,19,17.20
2005,07,20,08,20,17.30
2005,07,20,08,21,17.30
2005,07,20,08,22,17.40
2005,07,20,08,23,17.50
2005,07,20,08,24,17.60
2005,07,20,08,25,17.60
2005,07,20,08,26,17.70
2005,07,20,08,27,17.70
2005,07,20,08,28,17.70
2005,07,20,08,29,17.70
2005,07,20,08,30,17.80
2005,07,20,08,31,17.80
2005,07,20,08,32,17.80
2005,07,20,08,33,17.80
2005,07,20,08,34,17.90
2005,07,20,08,35,17.90
2005,07,20,08,36,18.00
2005,07,20,08,37,18.10
2005,07,20,08,38,18.20
2005,07,20,08,39,18.30
2005,07,20,08,40,18.30
2005,07,20,08,41,18.30
2005,07,20,08,42,18.30
2005,07,20,08,43,18.30
2005,07,20,08,44,18.40
2005,07,20,08,45,18.50
2005,07,20,08,46,18.60
2005,07,20,08,47,18.60
2005,07,20,08,48,18.60
2005,07,20,08,49,18.70
2005,07,20,08,50,18.70
2005,07,20,08,51,18.80
2005,07,20,08,52,18.90
2005,07,20,08,53,18.90
2005,07,20,08,54,18.90
2005,07,20,08,55,18.90
2005,07,20,08,56,18.90
2005,07,20,08,57,18.90
2005,07,20,08,58,18.90
2005,07,20,08,59,18.90
2005,07,20,09,00,19.00
2005,07,20,09,01,18.90
2005,07,20,09,02,18.90
2005,07,20,09,03,18.80
2005,07,20,09,04,18.70
2005,07,20,09,05,18.70
2005,07,20,09,06,18.70
2005,07,20,09,07,18.70
2005,07,20,09,08,18.80
2005,07,20,09,09,18.90
2005,07,20,09,10,18.90
2005,07,20,09,11,19.00
2005,07,20,09,12,18.90
2005,07,20,09,13,18.90
2005,07,20,09,14,18.90
2005,07,20,09,15,18.80
2005,07,20,09,16,18.70
2005,07,20,09,17,18.60
2005,07,20,09,18,18.70
2005,07,20,09,19,18.70
2005,07,20,09,20,18.80
2005,07,20,09,21,18.90
2005,07,20,09,22,18.90
2005,07,20,09,23,19.00
2005,07,20,09,24,19.10
2005,07,20,09,25,19.10
2005,07,20,09,26,19.20
2005,07,20,09,27,19.10
2005,07,20,09,28,19.10
2005,07,20,09,29,19.20
2005,07,20,09,30,19.30
2005,07,20,09,31,19.30
2005,07,20,09,32,19.40
2005,07,20,09,33,19.30
2005,07,20,09,34,19.30
2005,07,20,09,35,19.40
2005,07,20,09,36,19.30
2005,07,20,09,37,19.30
2005,07,20,09,38,19.30
2005,07,20,09,39,19.40
2005,07,20,09,40,19.40
2005,07,20,09,41,19.50
2005,07,20,09,42,19.50
2005,07,20,09,43,19.50
2005,07,20,09,44,19.60
2005,07,20,09,45,19.50
2005,07,20,09,46,19.50
2005,07,20,09,47,19.50
2005,07,20,09,48,19.60
2005,07,20,09,49,19.60
2005,07,20,09,50,19.60
2005,07,20,09,51,19.70
2005,07,20,09,52,19.80
2005,07,20,09,53,19.80
2005,07,20,09,54,19.80
2005,07,20,09,55,19.70
2005,07,20,09,56,19.70
2005,07,20,09,57,19.70
2005,07,20,09,58,19.60
2005,07,20,09,59,19.60
2005,07,20,10,00,19.50
2005,07,20,10,01,19.50
2005,07,20,10,02,19.50
2005,07,20,10,03,19.40
2005,07,20,10,04,19.40
2005,07,20,10,05,19.30
2005,07,20,10,06,19.30
2005,07,20,10,07,19.30
2005,07,20,10,08,19.40
2005,07,20,10,09,19.50
2005,07,20,10,10,19.50
2005,07,20,10,11,19.60
2005,07,20,10,12,19.60
2005,07,20,10,13,19.50
2005,07,20,10,14,19.60
2005,07,20,10,15,19.60
2005,07,20,10,16,19.70
2005,07,20,10,17,19.80
2005,07,20,10,18,19.70
2005,07,20,10,19,19.70
2005,07,20,10,20,19.70
2005,07,20,10,21,19.70
2005,07,20,10,22,19.70
2005,07,20,10,23,19.70
2005,07,20,10,24,19.50
2005,07,20,10,25,19.50
2005,07,20,10,26,19.50
2005,07,20,10,27,19.50
2005,07,20,10,28,19.50
2005,07,20,10,29,19.50
2005,07,20,10,30,19.40
2005,07,20,10,31,19.30
2005,07,20,10,32,19.30
2005,07,20,10,33,19.20
2005,07,20,10,34,19.30
2005,07,20,10,35,19.40
2005,07,20,10,36,19.50
2005,07,20,10,37,19.60
2005,07,20,10,38,19.60
2005,07,20,10,39,19.70
2005,07,20,10,40,19.60
2005,07,20,10,41,19.50
2005,07,20,10,42,19.50
2005,07,20,10,43,19.60
2005,07,20,10,44,19.60
2005,07,20,10,45,19.60
2005,07,20,10,46,19.60
2005,07,20,10,47,19.70
2005,07,20,10,48,19.80
2005,07,20,10,49,19.90
2005,07,20,10,50,19.90
2005,07,20,10,51,19.80
2005,07,20,10,52,19.80
2005,07,20,10,53,19.90
2005,07,20,10,54,19.90
2005,07,20,10,55,19.90
2005,07,20,10,56,19.90
2005,07,20,10,57,19.80
2005,07,20,10,58,19.70
2005,07,20,10,59,19.70
2005,07,20,11,00,19.70
2005,07,20,11,01,19.70
2005,07,20,11,02,19.70
2005,07,20,11,03,19.80
2005,07,20,11,04,19.90
2005,07,20,11,05,19.90
2005,07,20,11,06,20.10
2005,07,20,11,07,20.10
2005,07,20,11,08,20.10
2005,07,20,11,09,20.00
2005,07,20,11,10,19.90
2005,07,20,11,11,19.90
2005,07,20,11,12,20.00
2005,07,20,11,13,20.10
2005,07,20,11,14,20.10
2005,07,20,11,15,20.20
2005,07,20,11,16,20.20
2005,07,20,11,17,20.20
2005,07,20,11,18,20.30
2005,07,20,11,19,20.20
2005,07,20,11,20,20.20
2005,07,20,11,21,20.20
2005,07,20,11,22,20.10
2005,07,20,11,23,20.10
2005,07,20,11,24,20.10
2005,07,20,11,25,20.10
2005,07,20,11,26,20.10
2005,07,20,11,27,20.00
2005,07,20,11,28,19.90
2005,07,20,11,29,19.90
2005,07,20,11,30,19.90
2005,07,20,11,31,19.90
2005,07,20,11,32,19.90
2005,07,20,11,33,20.10
2005,07,20,11,34,20.10
2005,07,20,11,35,20.10
2005,07,20,11,36,20.00
2005,07,20,11,37,19.90
2005,07,20,11,38,20.00
2005,07,20,11,39,20.10
2005,07,20,11,40,20.20
2005,07,20,11,41,20.20
2005,07,20,11,42,20.30
2005,07,20,11,43,20.30
2005,07,20,11,44,20.30
2005,07,20,11,45,20.30
2005,07,20,11,46,20.40
2005,07,20,11,47,20.50
2005,07,20,11,48,20.60
2005,07,20,11,49,20.60
2005,07,20,11,50,20.70
2005,07,20,11,51,20.70
2005,07,20,11,52,20.70
2005,07,20,11,53,20.70
2005,07,20,11,54,20.80
2005,07,20,11,55,20.80
2005,07,20,11,56,20.80
2005,07,20,11,57,20.80
2005,07,20,11,58,20.80
2005,07,20,11,59,20.70
2005,07,20,12,00,20.60
2005,07,20,12,01,20.50
2005,07,20,12,02,20.50
2005,07,20,12,03,20.60
2005,07,20,12,04,20.60
2005,07,20,12,05,20.60
2005,07,20,12,06,20.60
2005,07,20,12,07,20.60
2005,07,20,12,08,20.60
2005,07,20,12,09,20.60
2005,07,20,12,10,20.60
2005,07,20,12,11,20.70
2005,07,20,12,12,20.80
2005,07,20,12,13,20.80
2005,07,20,12,14,20.80
2005,07,20,12,15,20.80
2005,07,20,12,16,20.80
2005,07,20,12,17,20.80
2005,07,20,12,18,20.80
2005,07,20,12,19,20.80
2005,07,20,12,20,20.80
2005,07,20,12,21,20.90
2005,07,20,12,22,20.90
2005,07,20,12,23,20.90
2005,07,20,12,24,20.90
2005,07,20,12,25,20.80
2005,07,20,12,26,20.80
2005,07,20,12,27,20.90
2005,07,20,12,28,20.90
2005,07,20,12,29,20.90
2005,07,20,12,30,20.90
2005,07,20,12,31,21.00
2005,07,20,12,32,21.00
2005,07,20,12,33,21.00
2005,07,20,12,34,21.00
2005,07,20,12,35,21.00
2005,07,20,12,36,20.90
2005,07,20,12,37,20.90
2005,07,20,12,38,21.00
2005,07,20,12,39,20.80
2005,07,20,12,40,20.80
2005,07,20,12,41,20.80
2005,07,20,12,42,20.80
2005,07,20,12,43,20.80
2005,07,20,12,44,20.80
2005,07,20,12,45,20.80
2005,07,20,12,46,20.90
2005,07,20,12,47,20.90
2005,07,20,12,48,20.90
2005,07,20,12,49,21.00
2005,07,20,12,50,20.90
2005,07,20,12,51,20.70
2005,07,20,12,52,20.50
2005,07,20,12,53,20.40
2005,07,20,12,54,20.40
2005,07,20,12,55,20.50
2005,07,20,12,56,20.50
2005,07,20,12,57,20.70
2005,07,20,12,58,20.80
2005,07,20,12,59,20.80
2005,07,20,13,00,20.90
2005,07,20,13,01,21.00
2005,07,20,13,02,21.10
2005,07,20,13,03,21.20
2005,07,20,13,04,21.20
2005,07,20,13,05,21.30
2005,07,20,13,06,21.30
2005,07,20,13,07,21.30
2005,07,20,13,08,21.20
2005,07,20,13,09,21.20
2005,07,20,13,10,21.20
2005,07,20,13,11,21.10
2005,07,20,13,12,21.10
2005,07,20,13,13,21.10
2005,07,20,13,14,21.10
2005,07,20,13,15,21.30
2005,07,20,13,16,21.20
2005,07,20,13,17,21.20
2005,07,20,13,18,21.20
2005,07,20,13,19,21.20
2005,07,20,13,20,21.30
2005,07,20,13,21,21.30
2005,07,20,13,22,21.40
2005,07,20,13,23,21.50
2005,07,20,13,24,21.60
2005,07,20,13,25,21.50
2005,07,20,13,26,21.50
2005,07,20,13,27,21.60
2005,07,20,13,28,21.60
2005,07,20,13,29,21.60
2005,07,20,13,30,21.60
2005,07,20,13,31,21.60
2005,07,20,13,32,21.50
2005,07,20,13,33,21.30
2005,07,20,13,34,21.10
2005,07,20,13,35,21.00
2005,07,20,13,36,20.80
2005,07,20,13,37,20.70
2005,07,20,13,38,20.80
2005,07,20,13,39,20.70
2005,07,20,13,40,20.60
2005,07,20,13,41,20.60
2005,07,20,13,42,20.50
2005,07,20,13,43,20.50
2005,07,20,13,44,20.60
2005,07,20,13,45,20.70
2005,07,20,13,46,20.70
2005,07,20,13,47,20.70
2005,07,20,13,48,20.70
2005,07,20,13,49,20.60
2005,07,20,13,50,20.70
2005,07,20,13,51,20.80
2005,07,20,13,52,20.90
2005,07,20,13,53,21.00
2005,07,20,13,54,21.10
2005,07,20,13,55,21.10
2005,07,20,13,56,21.10
2005,07,20,13,57,21.10
2005,07,20,13,58,21.10
2005,07,20,13,59,21.00
2005,07,20,14,00,20.90
2005,07,20,14,01,20.90
2005,07,20,14,02,21.10
2005,07,20,14,03,21.00
2005,07,20,14,04,20.90
2005,07,20,14,05,20.70
2005,07,20,14,06,20.40
2005,07,20,14,07,20.30
2005,07,20,14,08,20.20
2005,07,20,14,09,20.10
2005,07,20,14,10,20.00
2005,07,20,14,11,19.90
2005,07,20,14,12,19.90
2005,07,20,14,13,19.90
2005,07,20,14,14,19.90
2005,07,20,14,15,19.90
2005,07,20,14,16,20.10
2005,07,20,14,17,20.20
2005,07,20,14,18,20.40
2005,07,20,14,19,20.40
2005,07,20,14,20,20.40
2005,07,20,14,21,20.40
2005,07,20,14,22,20.50
2005,07,20,14,23,20.50
2005,07,20,14,24,20.50
2005,07,20,14,25,20.60
2005,07,20,14,26,20.60
2005,07,20,14,27,20.70
2005,07,20,14,28,20.70
2005,07,20,14,29,20.70
2005,07,20,14,30,20.60
2005,07,20,14,31,20.60
2005,07,20,14,32,20.50
2005,07,20,14,33,20.50
2005,07,20,14,34,20.60
2005,07,20,14,35,20.50
2005,07,20,14,36,20.60
2005,07,20,14,37,20.70
2005,07,20,14,38,20.70
2005,07,20,14,39,20.70
2005,07,20,14,40,20.70
2005,07,20,14,41,20.70
2005,07,20,14,42,20.80
2005,07,20,14,43,20.90
2005,07,20,14,44,21.00
2005,07,20,14,45,21.10
2005,07,20,14,46,21.10
2005,07,20,14,47,21.00
2005,07,20,14,48,21.00
2005,07,20,14,49,20.90
2005,07,20,14,50,21.00
2005,07,20,14,51,21.00
2005,07,20,14,52,20.90
2005,07,20,14,53,20.80
2005,07,20,14,54,20.80
2005,07,20,14,55,20.80
2005,07,20,14,56,20.90
2005,07,20,14,57,20.90
2005,07,20,14,58,20.90
2005,07,20,14,59,21.00
2005,07,20,15,00,20.90
2005,07,20,15,01,20.70
2005,07,20,15,02,20.50
2005,07,20,15,03,20.50
2005,07,20,15,04,20.60
2005,07,20,15,05,20.70
2005,07,20,15,06,20.80
2005,07,20,15,07,20.80
2005,07,20,15,08,20.80
2005,07,20,15,09,20.80
2005,07,20,15,10,20.90
2005,07,20,15,11,20.90
2005,07,20,15,12,20.90
2005,07,20,15,13,20.90
2005,07,20,15,14,20.80
2005,07,20,15,15,20.90
2005,07,20,15,16,21.00
2005,07,20,15,17,21.10
2005,07,20,15,18,21.10
2005,07,20,15,19,20.80
2005,07,20,15,20,20.50
2005,07,20,15,21,20.30
2005,07,20,15,22,20.10
2005,07,20,15,23,20.10
2005,07,20,15,24,20.20
2005,07,20,15,25,20.20
2005,07,20,15,26,20.30
2005,07,20,15,27,20.50
2005,07,20,15,28,20.70
2005,07,20,15,29,20.70
2005,07,20,15,30,20.80
2005,07,20,15,31,20.80
2005,07,20,15,32,20.80
2005,07,20,15,33,20.90
2005,07,20,15,34,20.80
2005,07,20,15,35,20.80
2005,07,20,15,36,20.70
2005,07,20,15,37,20.80
2005,07,20,15,38,20.70
2005,07,20,15,39,20.80
2005,07,20,15,40,20.80
2005,07,20,15,41,20.60
2005,07,20,15,42,20.40
2005,07,20,15,43,20.20
2005,07,20,15,44,20.00
2005,07,20,15,45,19.90
2005,07,20,15,46,20.00
2005,07,20,15,47,20.10
2005,07,20,15,48,20.10
2005,07,20,15,49,20.20
2005,07,20,15,50,20.30
2005,07,20,15,51,20.50
2005,07,20,15,52,20.60
2005,07,20,15,53,20.70
2005,07,20,15,54,20.70
2005,07,20,15,55,20.50
2005,07,20,15,56,20.40
2005,07,20,15,57,20.30
2005,07,20,15,58,20.40
2005,07,20,15,59,20.40
2005,07,20,16,00,20.30
2005,07,20,16,01,20.20
2005,07,20,16,02,20.20
2005,07,20,16,03,20.30
2005,07,20,16,04,20.20
2005,07,20,16,05,20.30
2005,07,20,16,06,20.40
2005,07,20,16,07,20.40
2005,07,20,16,08,20.50
2005,07,20,16,09,20.50
2005,07,20,16,10,20.50
2005,07,20,16,11,20.70
2005,07,20,16,12,20.80
2005,07,20,16,13,20.80
2005,07,20,16,14,20.80
2005,07,20,16,15,20.70
2005,07,20,16,16,20.60
2005,07,20,16,17,20.60
2005,07,20,16,18,20.50
2005,07,20,16,19,20.60
2005,07,20,16,20,20.60
2005,07,20,16,21,20.60
2005,07,20,16,22,20.70
2005,07,20,16,23,20.70
2005,07,20,16,24,20.60
2005,07,20,16,25,20.50
2005,07,20,16,26,20.40
2005,07,20,16,27,20.30
2005,07,20,16,28,20.40
2005,07,20,16,29,20.40
2005,07,20,16,30,20.50
2005,07,20,16,31,20.50
2005,07,20,16,32,20.70
2005,07,20,16,33,20.70
2005,07,20,16,34,20.60
2005,07,20,16,35,20.60
2005,07,20,16,36,20.60
2005,07,20,16,37,20.60
2005,07,20,16,38,20.70
2005,07,20,16,39,20.80
2005,07,20,16,40,20.80
2005,07,20,16,41,20.80
2005,07,20,16,42,20.80
2005,07,20,16,43,20.80
2005,07,20,16,44,20.90
2005,07,20,16,45,20.80
2005,07,20,16,46,20.60
2005,07,20,16,47,20.60
2005,07,20,16,48,20.50
2005,07,20,16,49,20.60
2005,07,20,16,50,20.50
2005,07,20,16,51,20.60
2005,07,20,16,52,20.60
2005,07,20,16,53,20.60
2005,07,20,16,54,20.60
2005,07,20,16,55,20.60
2005,07,20,16,56,20.70
2005,07,20,16,57,20.70
2005,07,20,16,58,20.80
2005,07,20,16,59,20.80
2005,07,20,17,00,20.80
2005,07,20,17,01,20.80
2005,07,20,17,02,20.90
2005,07,20,17,03,21.00
2005,07,20,17,04,21.00
2005,07,20,17,05,21.10
2005,07,20,17,06,21.10
2005,07,20,17,07,21.20
2005,07,20,17,08,21.20
2005,07,20,17,09,21.20
2005,07,20,17,10,21.20
2005,07,20,17,11,21.30
2005,07,20,17,12,21.30
2005,07,20,17,13,21.30
2005,07,20,17,14,21.30
2005,07,20,17,15,21.30
2005,07,20,17,16,21.20
2005,07,20,17,17,21.20
2005,07,20,17,18,21.20
2005,07,20,17,19,21.30